User: anonymous   Login
Location: Bijele Vode
(45.2833°N, 16.2000°E)
Time: 10:21:39
(UTC+00:00)
Language:

CZ-2C R/B - Orbit

View from above orbital plane
View from above orbital plane
View from above satellite
View from above satellite

Ground track
Ground track

The orbit data is extracted from the following two-line orbital elements,

1 43173U 18011E   21131.45997598  .00001620  00000-0  46497-4 0  9996
2 43173  34.9681 163.9480 0139606 106.9490 254.6580 15.26703093183554
Epoch (UTC): 11 May 2021 11:02:21
Eccentricity: 0.0139606
inclination: 34.9681°
perigee height: 390 km
apogee height: 581 km
right ascension of ascending node: 163.9480°
argument of perigee: 106.9490°
revolutions per day: 15.26703093
mean anomaly at epoch: 254.6580°
orbit number at epoch: 18355

The dashed part of the orbit path shows where the satellite is in the earth's shadow,  

DLR